CW2028 Weather Reports


time (UTC)temp
C
wind
direction
speed
KPH
gust
KPH
rain 1hr
cm
rain 24hr
cm
rain mn
cm
humidity
%
barometer
mb
20260504234225 27 262 8.0 25.7 0.00 0.00 0.00 47 1000.9
20260504233220 27 259 4.8 16.1 0.00 0.00 0.00 44 1000.8
20260504232237 27 282 6.4 12.9 0.00 0.00 0.00 43 1000.7
20260504231217 27 156 6.4 17.7 0.00 0.00 0.00 42 1000.8
20260504230215 27 139 8.0 24.1 0.00 0.00 0.00 47 1000.9
20260504225212 28 275 3.2 11.3 0.00 0.00 0.00 43 1000.9
20260504224230 28 236 9.7 19.3 0.00 0.00 0.00 43 1001.0
20260504223229 28 222 8.0 17.7 0.00 0.00 0.00 44 1001.0
20260504222228 27 157 8.0 19.3 0.00 0.00 0.00 46 1001.0
20260504221223 28 160 8.0 19.3 0.00 0.00 0.00 45 1001.0
20260504220223 28 221 9.7 24.1 0.00 0.00 0.00 43 1001.0
20260504215240 28 199 8.0 17.7 0.00 0.00 0.00 45 1001.0
20260504214214 28 235 9.7 24.1 0.00 0.00 0.00 43 1001.1
20260504213212 27 136 8.0 27.4 0.00 0.00 0.00 43 1001.1
20260504212231 27 221 9.7 20.9 0.00 0.00 0.00 44 1001.2
20260504211228 27 262 6.4 25.7 0.00 0.00 0.00 44 1001.2
20260504210223 27 149 8.0 20.9 0.00 0.00 0.00 47 1001.2
20260504205223 27 278 12.9 24.1 0.00 0.00 0.00 44 1001.3
20260504204218 27 264 6.4 22.5 0.00 0.00 0.00 48 1001.3
20260504203215 27 139 6.4 19.3 0.00 0.00 0.00 46 1001.3
20260504202215 27 143 8.0 20.9 0.00 0.00 0.00 47 1001.4
20260504201231 26 190 9.7 22.5 0.00 0.00 0.00 46 1001.5
20260504200225 26 282 6.4 19.3 0.00 0.00 0.00 47 1001.6
20260504195221 26 174 9.7 19.3 0.00 0.00 0.00 45 1001.6
20260504194222 26 246 6.4 17.7 0.00 0.00 0.00 47 1001.7
20260504193219 26 212 6.4 19.3 0.00 0.00 0.00 47 1001.8
20260504192234 26 254 11.3 29.0 0.00 0.00 0.00 46 1001.9
20260504191230 26 229 6.4 17.7 0.00 0.00 0.00 47 1002.0
20260504190229 26 185 9.7 24.1 0.00 0.00 0.00 46 1002.1
20260504185228 26 169 6.4 20.9 0.00 0.00 0.00 48 1002.0
20260504184221 26 128 9.7 24.1 0.00 0.00 0.00 48 1002.3
20260504183221 26 262 8.0 19.3 0.00 0.00 0.00 47 1002.1
20260504182218 25 264 9.7 20.9 0.00 0.00 0.00 47 1002.2
20260504181234 25 123 4.8 25.7 0.00 0.00 0.00 48 1002.2
20260504180229 25 200 8.0 17.7 0.00 0.00 0.00 45 1002.3
20260504175229 25 105 9.7 16.1 0.00 0.00 0.00 51 1002.4
20260504174227 24 242 6.4 20.9 0.00 0.00 0.00 51 1002.4
20260504173222 24 152 11.3 27.4 0.00 0.00 0.00 50 1002.4
20260504172223 23 226 9.7 20.9 0.00 0.00 0.00 50 1002.5
20260504171218 23 224 8.0 19.3 0.00 0.00 0.00 51 1002.7
20260504170215 23 218 8.0 22.5 0.00 0.00 0.00 53 1002.8
20260504160219 22 271 9.7 30.6 0.00 0.00 0.00 52 1003.1
20260504150222 21 169 9.7 24.1 0.00 0.00 0.00 55 1003.3
20260504141215 20 195 6.4 20.9 0.00 0.00 0.00 60 1003.5
20260504140213 20 167 9.7 17.7 0.00 0.00 0.00 59 1003.7
20260504130217 17 211 4.8 16.1 0.00 0.00 0.00 66 1004.0
20260504120236 15 147 4.8 8.0 0.00 0.00 0.00 76 1004.3
20260504110222 13 162 0.0 0.0 0.00 0.00 0.00 80 1004.6
20260504100248 13 146 0.0 0.0 0.00 0.00 0.00 80 1005.4
20260504081215 16 200 1.6 3.2 0.00 0.00 0.00 70 1006.0
20260504080231 17 193 0.0 1.6 0.00 0.00 0.00 67 1006.1
20260504070216 18 179 3.2 6.4 0.00 0.00 0.00 61 1006.0
20260504060220 19 130 3.2 6.4 0.00 0.00 0.00 62 1006.0
20260504050221 17 241 0.0 3.2 0.00 0.00 0.00 62 1007.0
20260504045216 17 145 0.0 1.6 0.00 0.00 0.00 62 1007.3
20260504044237 17 161 1.6 3.2 0.00 0.00 0.00 62 1007.5
20260504043234 17 294 0.0 1.6 0.00 0.00 0.00 65 1007.6
20260504042229 16 148 0.0 1.6 0.00 0.00 0.00 66 1007.7
20260504041226 16 202 0.0 1.6 0.00 0.00 0.00 65 1007.6
20260504040226 16 98 0.0 3.2 0.00 0.00 0.00 66 1007.6
20260504035221 17 19 0.0 1.6 0.00 0.00 0.00 66 1007.8
20260504034218 16 19 0.0 1.6 0.00 0.00 0.00 69 1007.9
20260504033218 16 1 0.0 0.0 0.00 0.00 0.00 76 1008.1
20260504032214 16 1 0.0 0.0 0.00 0.00 0.00 71 1008.1
20260504031231 16 1 0.0 0.0 0.00 0.00 0.00 69 1008.1
20260504030246 16 1 0.0 0.0 0.00 0.00 0.00 69 1008.3
20260504025224 17 1 0.0 0.0 0.00 0.00 0.00 69 1008.2
20260504024221 17 1 0.0 0.0 0.00 0.00 0.00 69 1008.2
20260504023217 17 1 0.0 1.6 0.00 0.00 0.00 67 1008.1
20260504022217 17 1 0.0 0.0 0.00 0.00 0.00 64 1008.2
20260504021214 17 1 0.0 0.0 0.00 0.00 0.00 63 1008.1
20260504020249 18 1 0.0 0.0 0.00 0.00 0.00 61 1008.1
20260504015224 19 1 0.0 0.0 0.00 0.00 0.00 60 1007.9
20260504014222 20 1 0.0 0.0 0.00 0.00 0.00 56 1008.0
20260504013218 20 1 0.0 0.0 0.00 0.00 0.00 55 1007.8
20260504012234 21 1 0.0 0.0 0.00 0.00 0.00 53 1007.8
20260504011229 22 1 0.0 0.0 0.00 0.00 0.00 50 1007.5
20260504010229 22 1 0.0 1.6 0.00 0.00 0.00 49 1007.6
20260504005225 23 1 0.0 0.0 0.00 0.00 0.00 47 1007.8
20260504004222 23 6 0.0 3.2 0.00 0.00 0.00 46 1007.7
20260504003238 25 353 0.0 1.6 0.00 0.00 0.00 43 1007.6
20260504002218 26 34 0.0 1.6 0.00 0.00 0.00 41 1007.7
20260504001213 26 237 0.0 1.6 0.00 0.00 0.00 40 1007.7
20260504000228 27 237 0.0 1.6 0.00 0.00 0.00 39 1007.7
20260503235225 27 237 0.0 1.6 0.00 0.00 0.00 38 1007.7